Regional Weather Roundup
Issued by NWS Upton, NY

Current Version | Previous Version | Graphics & Text | Print | Product List | Glossary Off
Versions: 1 2 3 4 5 6 7 8 9 10 11 12 13 14 15 16 17 18 19 20 21 22 23 24 25 26 27 28 29 30 31 32 33 34 35 36 37 38 39 40 41 42 43 44 45 46 47 48 49 50

000
ASUS41 KOKX 280104
RWROKX

REGIONAL WEATHER ROUNDUP
NATIONAL WEATHER SERVICE NEW YORK NY
900 PM EDT FRI MAY 27 2016

NOTE: "FAIR" INDICATES FEW OR NO CLOUDS BELOW 12,000 FEET WITH NO
SIGNIFICANT WEATHER AND/OR OBSTRUCTIONS TO VISIBILITY.

NYZ071-072-176-178-NJZ106-104-280200-
NEW YORK CITY METRO AREA


CITY           SKY/WX    TMP DP  RH WIND       PRES   REMARKS
CENTRAL PARK   PTCLDY    78  63  59 VRB5      30.05R
LAGUARDIA APRT MOCLDY    74  67  78 S8        30.02R
KENNEDY INTL   MOCLDY    69  60  73 S20       30.04R
NEWARK/LIBERTY MOCLDY    83  67  58 S10       30.01R
BRNX BOT. GARD   N/A     72  61  68 E1        30.02F
TETERBORO      PTCLDY    80  63  55 S5        30.00R
$$

NYZ177-179-078>081-280200-
LONG ISLAND NEW YORK

CITY           SKY/WX    TMP DP  RH WIND       PRES   REMARKS
FARMINGDALE    PTCLDY    68  58  70 SW14G21   30.06R
ISLIP          PTCLDY    68  56  65 SW15G23   30.06S
SHIRLEY        CLEAR     68  56  65 SW13      30.08R
RIVERHEAD        N/A     68  57  68 W1        30.06R
WESTHAMPTON    CLEAR     65  55  70 SW9G20    30.09S
EAST HAMPTON   FAIR      63  56  78 SW10      30.07S
MONTAUK POINT    N/A     62  56  80 SW10G17   30.09S
$$

NYZ052-065-067-280200-
HUDSON VALLEY

CITY           SKY/WX    TMP DP  RH WIND       PRES   REMARKS
WHITE PLAINS   CLEAR     71  62  73 S7        30.03R
NEWBURGH       MOCLDY    73  68  83 SE7       30.03R
MONTGOMERY     PTCLDY    72  70  93 N3        30.02R
POUGHKEEPSIE   CLEAR     76  68  76 CALM      30.01R
ALBANY         CLOUDY    78  67  68 S10       29.98R
$$

NJZ001-105-106-008-010-013-015-019>022-104-280200-
NEW JERSEY

CITY           SKY/WX    TMP DP  RH WIND       PRES   REMARKS
NEWARK/LIBERTY MOCLDY    83  67  58 S10       30.01R
TETERBORO      PTCLDY    80  63  55 S5        30.00R
CALDWELL       PTCLDY    78  67  68 E3        30.01R
MORRISTOWN     MOCLDY    82  66  57 SW7       30.01R
SOMERVILLE     CLEAR     78  67  68 CALM      30.00R
SUSSEX         PTCLDY    77  69  76 CALM      30.03R
ANDOVER          N/A     76  68  76 CALM      30.04R
TRENTON        CLEAR     82  66  58 SW9       30.03R
MILLVILLE      CLEAR     74  61  63 VRB7      30.08R
ATLANTIC CITY  CLEAR     73  54  51 S14       30.08R
WRIGHTSTOWN    CLEAR     76  65  69 S8        30.03R
TOMS RIVER     CLEAR     72  55  56 S8        30.07R
BELMAR         CLEAR     75  61  61 S10       30.07R
$$

PAZ047>061-062-071-280200-
EASTERN PENNSYLVANIA

CITY           SKY/WX    TMP DP  RH WIND       PRES   REMARKS
PHILADELPHIA   CLOUDY    80  65  59 S9        30.05R
ALLENTOWN      CLEAR     82  67  60 SW9       30.02R
SCRANTON       CLEAR     77  65  66 CALM      30.04R
$$

CTZ002-004>006-009-010-012-RIZ004-006-007-MAZ004-011-015-280200-
SOUTHERN NEW ENGLAND
 IN CT

CITY           SKY/WX    TMP DP  RH WIND       PRES   REMARKS
BRADLEY INTL   MOCLDY    75  63  66 S12       30.02R
HARTFORD       PTCLDY    75  63  66 S6        30.03R
DANBURY        CLEAR     69  65  86 CALM      30.05R
WTRBRY/OXFORD    N/A     66  63  88 S6        30.06R
BRIDGEPORT     CLEAR     70  60  70 S5        30.05R
MERIDEN        PTCLDY    73  62  68 S7        30.04R
NEW HAVEN      CLEAR     67  60  78 S5        30.05S
CHESTER        FAIR      68  61  77 S5        30.07S
GROTON         PTCLDY    65  61  87 SW10      30.07R
WILLIMANTIC    CLEAR     74  62  66 S8        30.05R

 IN RI

CITY           SKY/WX    TMP DP  RH WIND       PRES   REMARKS
PROVIDENCE     MOCLDY    70  60  70 S12       30.06R
BLOCK ISLAND   CLEAR     61  56  83 SW13      30.10R
WESTERLY       PTCLDY    64  56  75 S6        30.09R

 IN MA

CITY           SKY/WX    TMP DP  RH WIND       PRES   REMARKS
BOSTON         CLOUDY    62  57  83 CALM      30.02
WORCESTER      NOT AVBL
WESTFIELD      LGT RAIN  70  67  90 S5        30.02R
PROVINCETOWN   PTCLDY    62  58  86 S15       30.06R
NANTUCKET      PTCLDY    59  56  89 SW8       30.11S
$$

ANZ330-335-338-340-345-350-353-355-280200-
COASTAL MARINE OBSERVATIONS


STATION/POSITION TIME  SKY/WX   TEMP    WIND        PRES    VSBY  WAVE
                                AIR SEA DIR/SP/G                  HT/PER
                 (UTC)          (F)     (DEG/KT/KT) (MB)    (MI)  (FT/S)
NY HARB ENTRANCE 2350            64 60  190/ 21/ 23 1016.3          5/ 5
20S FIRE ISLAND  2350            62 60  200/ 17/ 19 1017.7          4/ 5
GREAT SOUTH BAY  0000            66 69  240/  6/ 14   N/A
23 SSW MONTAUK P 0050            62 58  220/ 17/ 21 1017.9          4/ 5
15 E BARNEGAT LI NOT AVBL
HUDSON CANYON    2350            61 57              1019.5          3/ 6
KINGS POINT      0000               60              1016.3
EXECUTION ROCKS  NOT AVBL
CENTRAL LI SOUND 0000            67     230/  6/  8   N/A           1/ 3
EASTERN LI SOUND 0000            60 54  200/  4/  6   N/A
ROBBINS REEF     0000                               1015.1
$$


>>>>>>>>>>>>>>>>>>>>>>>>>>>> KEY <<<<<<<<<<<<<<<<<<<<<<<<<<<
>                                                          <
>     SKY/WX - SKY CONDITION/PRESENT WEATHER               <
>     TMP    - TEMPERATURE IN FAHRENHEIT                   <
>     DP     - DEWPOINT IN FAHRENHEIT                      <
>     RH     - RELATIVE HUMIDITY IN PERCENT                <
>     WIND   - DIRECTION AND SPEED IN MPH                  <
>     PRES   - MEAN SEA LEVEL PRESSURE IN INCHES OF HG     <
>     WCI    - WIND CHILL INDEX                            <
>     VSB    - VISIBILITY IN MILES                         <
>     HX     - HEAT INDEX                                  <
>     TC     - TEMPERATURE IN CELSIUS                      <
>     VRB    - VARIABLE WIND DIRECTION                     <
>                                                          <
>>>>>>>>>>>>>>>>>>>>>>>>>>>> KEY <<<<<<<<<<<<<<<<<<<<<<<<<<<





USA.gov is the U.S. government's official web portal to all federal, state and local government web resources and services.